Location: Ottawa
(45.4167°N, 75.7000°W)
Time: 22:20:19
(UTC-04:00)

OTV 5 (USA 277) - Pass Details

Date: 13 October 2017
Orbit: 404 x 417 km, 43.0° (Epoch: 07 September)

Event Time Altitude Azimuth Distance (km) Brightness Sun altitude
Rises 18:47:15 0° 233° (SW) 2,347 ? -5.5°
Reaches altitude 10° 18:49:30 10° 222° (SW) 1,487 ? -5.9°
Maximum altitude 18:52:29 30° 160° (SSE) 776 ? -6.4°
Drops below altitude 10° 18:55:29 10° 97° (E) 1,491 ? -6.9°
Enters shadow 18:55:43 - 95° (E) 1,578 ? -7.0°
